• In Netherlands
  • List of Countries
  • For 7 days
  • Water Temperature
  • Satellite Maps
  • Weather Map
  • Weather Widgets
  • user-avatar
    Login

    Hourly Weather San Juan

    Today, 26 July, Wednesday

    Time Temperature Precipitation Wind Pressure Humidity
    00:00 +13°C° 0 mm 2 mps 707 mmHg 52%
    01:00 +14°C° 0 mm 2 mps 707 mmHg 49%
    02:00 +14°C° 0 mm 2 mps 707 mmHg 49%
    03:00 +12°C° 0 mm 3 mps 707 mmHg 48%
    04:00 +12°C° 0 mm 3 mps 707 mmHg 47%
    05:00 +13°C° 0 mm 2 mps 707 mmHg 51%
    06:00 +13°C° 0 mm 2 mps 707 mmHg 54%
    07:00 +12°C° 0 mm 2 mps 707 mmHg 57%
    08:00 +14°C° 0 mm 2 mps 708 mmHg 50%
    09:00 +17°C° 0 mm 2 mps 708 mmHg 44%
    10:00 +19°C° 0 mm 2 mps 708 mmHg 37%
    11:00 +20°C° 0 mm 2 mps 708 mmHg 35%
    12:00 +21°C° 0 mm 2 mps 707 mmHg 33%
    13:00 +23°C° 0 mm 2 mps 707 mmHg 31%
    14:00 +23°C° 0 mm 2 mps 706 mmHg 33%
    15:00 +23°C° 0 mm 2 mps 706 mmHg 35%
    16:00 +21°C° 0 mm 2 mps 706 mmHg 37%
    17:00 +20°C° 0 mm 2 mps 706 mmHg 43%
    18:00 +18°C° 0 mm 2 mps 706 mmHg 49%
    19:00 +18°C° 0 mm 1 mps 706 mmHg 55%
    20:00 +16°C° 0 mm 1 mps 706 mmHg 56%
    21:00 +16°C° 0 mm 1 mps 706 mmHg 58%
    22:00 +15°C° 0 mm 1 mps 706 mmHg 59%
    23:00 +15°C° 0 mm 1 mps 705 mmHg 58%

    Tomorrow, 27 July, Thursday

    Time Temperature Precipitation Wind Pressure Humidity
    00:00 +15°C° 0 mm 2 mps 705 mmHg 56%
    01:00 +15°C° 0 mm 2 mps 705 mmHg 55%
    02:00 +15°C° 0 mm 2 mps 704 mmHg 55%
    03:00 +15°C° 0 mm 2 mps 704 mmHg 54%
    04:00 +15°C° 0 mm 2 mps 704 mmHg 54%
    05:00 +15°C° 0 mm 2 mps 704 mmHg 54%
    06:00 +15°C° 0 mm 2 mps 704 mmHg 54%
    07:00 +15°C° 0 mm 2 mps 704 mmHg 54%
    08:00 +17°C° 0 mm 2 mps 704 mmHg 48%
    09:00 +20°C° 0 mm 2 mps 704 mmHg 42%
    10:00 +24°C° 0 mm 2 mps 704 mmHg 36%
    11:00 +25°C° 0 mm 2 mps 704 mmHg 33%
    12:00 +26°C° 0 mm 2 mps 703 mmHg 30%
    13:00 +28°C° 0 mm 2 mps 702 mmHg 26%
    14:00 +28°C° 0 mm 2 mps 702 mmHg 27%
    15:00 +27°C° 0 mm 1 mps 702 mmHg 27%
    16:00 +27°C° 0 mm 1 mps 702 mmHg 28%
    17:00 +25°C° 0 mm 1 mps 702 mmHg 34%
    18:00 +23°C° 0 mm 1 mps 702 mmHg 40%
    19:00 +21°C° 0 mm 1 mps 702 mmHg 46%
    20:00 +21°C° 0 mm 1 mps 702 mmHg 46%
    21:00 +20°C° 0 mm 1 mps 702 mmHg 47%
    22:00 +19°C° 0 mm 2 mps 703 mmHg 47%
    23:00 +18°C° 0 mm 2 mps 702 mmHg 46%

    Day after tomorrow, 28 July, Friday

    Time Temperature Precipitation Wind Pressure Humidity
    00:00 +18°C° 0 mm 2 mps 702 mmHg 46%
    01:00 +17°C° 0 mm 2 mps 701 mmHg 45%
    02:00 +17°C° 0 mm 2 mps 701 mmHg 45%
    03:00 +17°C° 0 mm 2 mps 701 mmHg 44%
    04:00 +16°C° 0 mm 2 mps 701 mmHg 44%
    05:00 +16°C° 0 mm 2 mps 701 mmHg 42%
    06:00 +16°C° 0 mm 2 mps 702 mmHg 41%
    07:00 +16°C° 0 mm 3 mps 702 mmHg 40%
    08:00 +18°C° 0 mm 3 mps 703 mmHg 39%
    09:00 +20°C° 0 mm 3 mps 703 mmHg 37%
    10:00 +24°C° 0 mm 3 mps 703 mmHg 35%
    11:00 +24°C° 0 mm 3 mps 703 mmHg 35%
    12:00 +25°C° 0 mm 4 mps 702 mmHg 35%
    13:00 +26°C° 0 mm 4 mps 701 mmHg 36%
    14:00 +25°C° 0 mm 4 mps 701 mmHg 38%
    15:00 +25°C° 0 mm 4 mps 701 mmHg 41%
    16:00 +23°C° 0 mm 4 mps 701 mmHg 43%
    17:00 +22°C° 0 mm 4 mps 702 mmHg 50%
    18:00 +20°C° 0 mm 4 mps 703 mmHg 58%
    19:00 +19°C° 0 mm 3 mps 704 mmHg 65%
    20:00 +18°C° 0 mm 3 mps 704 mmHg 67%
    21:00 +18°C° 0 mm 4 mps 704 mmHg 70%
    22:00 +17°C° 0 mm 4 mps 705 mmHg 72%
    23:00 +17°C° 0 mm 4 mps 705 mmHg 73%

    29 July, Saturday

    Time Temperature Precipitation Wind Pressure Humidity
    00:00 +15°C° 0 mm 4 mps 705 mmHg 73%
    01:00 +15°C° 0 mm 4 mps 705 mmHg 74%
    02:00 +14°C° 0 mm 4 mps 705 mmHg 73%
    03:00 +14°C° 0 mm 4 mps 705 mmHg 71%
    04:00 +14°C° 0 mm 5 mps 705 mmHg 70%
    05:00 +13°C° 0 mm 5 mps 705 mmHg 69%
    06:00 +12°C° 0 mm 5 mps 706 mmHg 68%
    07:00 +12°C° 0 mm 5 mps 706 mmHg 66%
    08:00 +13°C° 0 mm 5 mps 706 mmHg 65%
    09:00 +13°C° 0 mm 5 mps 707 mmHg 64%
    10:00 +14°C° 0 mm 5 mps 707 mmHg 63%
    11:00 +14°C° 0 mm 5 mps 706 mmHg 62%
    12:00 +15°C° 0 mm 5 mps 706 mmHg 61%
    13:00 +15°C° 0 mm 6 mps 705 mmHg 60%
    14:00 +14°C° 0 mm 6 mps 705 mmHg 61%
    15:00 +14°C° 0 mm 6 mps 705 mmHg 61%
    16:00 +13°C° 0 mm 6 mps 706 mmHg 62%
    17:00 +11°C° 0 mm 6 mps 706 mmHg 64%
    18:00 +10°C° 0 mm 5 mps 707 mmHg 66%
    19:00 +9°C° 0 mm 5 mps 708 mmHg 69%
    20:00 +9°C° 0 mm 5 mps 708 mmHg 69%
    21:00 +8°C° 0 mm 5 mps 709 mmHg 70%
    22:00 +8°C° 0 mm 5 mps 709 mmHg 71%
    23:00 +7°C° 0 mm 5 mps 709 mmHg 72%

    30 July, Sunday

    Time Temperature Precipitation Wind Pressure Humidity
    00:00 +7°C° 0 mm 5 mps 709 mmHg 73%
    01:00 +7°C° 0 mm 5 mps 709 mmHg 74%
    02:00 +7°C° 0 mm 5 mps 709 mmHg 74%
    03:00 +6°C° 0 mm 5 mps 709 mmHg 73%
    04:00 +6°C° 0 mm 5 mps 709 mmHg 73%
    05:00 +6°C° 0 mm 4 mps 710 mmHg 72%
    06:00 +6°C° 0 mm 4 mps 710 mmHg 71%
    07:00 +6°C° 0 mm 4 mps 711 mmHg 70%
    08:00 +7°C° 0 mm 4 mps 711 mmHg 66%
    09:00 +8°C° 0 mm 4 mps 711 mmHg 62%
    10:00 +10°C° 0 mm 4 mps 711 mmHg 57%
    11:00 +9°C° 0 mm 5 mps 710 mmHg 56%
    12:00 +10°C° 0 mm 5 mps 709 mmHg 54%
    13:00 +12°C° 0 mm 5 mps 708 mmHg 52%
    14:00 +12°C° 0 mm 5 mps 708 mmHg 54%
    15:00 +10°C° 0 mm 5 mps 708 mmHg 55%
    16:00 +11°C° 0 mm 4 mps 708 mmHg 56%
    17:00 +11°C° 0 mm 4 mps 709 mmHg 60%
    18:00 +10°C° 0 mm 4 mps 709 mmHg 65%
    19:00 +9°C° 0 mm 3 mps 710 mmHg 69%
    20:00 +9°C° 0 mm 3 mps 710 mmHg 71%
    21:00 +8°C° 0 mm 3 mps 710 mmHg 73%
    22:00 +7°C° 0 mm 4 mps 710 mmHg 75%
    23:00 +8°C° 0 mm 3 mps 710 mmHg 74%

    31 July, Monday

    Time Temperature Precipitation Wind Pressure Humidity
    00:00 +8°C° 0 mm 3 mps 709 mmHg 74%
    01:00 +8°C° 0 mm 3 mps 709 mmHg 73%
    02:00 +7°C° 0 mm 3 mps 709 mmHg 72%
    03:00 +7°C° 0 mm 2 mps 708 mmHg 70%
    04:00 +7°C° 0 mm 2 mps 708 mmHg 68%
    05:00 +7°C° 0 mm 2 mps 708 mmHg 66%
    06:00 +8°C° 0 mm 2 mps 708 mmHg 64%
    07:00 +8°C° 0 mm 2 mps 708 mmHg 62%
    08:00 +9°C° 0 mm 2 mps 707 mmHg 57%
    09:00 +12°C° 0 mm 2 mps 707 mmHg 53%
    10:00 +14°C° 0 mm 2 mps 707 mmHg 48%
    11:00 +14°C° 0 mm 3 mps 706 mmHg 46%
    12:00 +16°C° 0 mm 3 mps 705 mmHg 43%
    13:00 +17°C° 0 mm 3 mps 704 mmHg 40%
    14:00 +17°C° 0 mm 3 mps 704 mmHg 42%
    15:00 +15°C° 0 mm 4 mps 703 mmHg 43%
    16:00 +15°C° 0 mm 4 mps 703 mmHg 45%
    17:00 +14°C° 0 mm 4 mps 703 mmHg 50%
    18:00 +13°C° 0 mm 3 mps 704 mmHg 55%
    19:00 +11°C° 0 mm 3 mps 704 mmHg 60%
    20:00 +11°C° 0 mm 3 mps 704 mmHg 59%
    21:00 +11°C° 0 mm 3 mps 704 mmHg 58%
    22:00 +12°C° 0 mm 2 mps 704 mmHg 58%
    23:00 +10°C° 0 mm 3 mps 704 mmHg 57%
    Show more